{"data":{"norad_id":63288,"epoch":"2026-05-25T04:44:17.689344Z","epoch_age_seconds":57429,"freshness":"FRESH","line1":"1 63288U 25054A   26145.19742696  .00000042  00000+0  23185-3 0  9992","line2":"2 63288  82.4924  92.9505 0025779  84.6633 275.7386 12.42866376 54000","mean_motion":12.42866376,"eccentricity":0.0025779,"inclination_deg":82.4924,"raan_deg":92.9505,"arg_perigee_deg":84.6633,"mean_anomaly_deg":275.7386,"bstar":0.00023185,"rev_number":5400,"period_min":115.8612082366,"perigee_km":1474.1808112222,"apogee_km":1514.7704273648,"semimajor_km":7872.6126192935,"source":"CELESTRAK","updated_at":"2026-05-25T13:38:03.618373Z"}}